Wind_Speed
58 58 58 58 58 58 58 58 58 58 60 61 61 61 62 63 63 64 64 64 63 62 61 60 60 59 59 58 57 56 55 54 53 52 51 49 48 48 47 46 45 44 43 43 42 42 43 43 43 44 44 44 44 44 45 46 47 48 49 50 51 51 52 52 52 52 52 51 51 50 49 49 50 50 51 50 49 48 49 50 52 54 56 56 56 56
58 58 58 57 57 57 58 59 58 58 59 61 61 62 62 63 63 64 63 63 62 61 60 60 59 59 59 59 58 57 57 55 54 52 51 49 49 49 48 47 46 44 43 42 41 42 42 42 43 43 43 43 43 43 43 44 45 47 48 49 50 50 51 51 51 51 51 51 51 51 50 50 51 51 52 51 50 49 49 49 51 54 55 54 53 53
58 58 58 57 56 57 58 59 59 59 59 60 61 62 62 62 62 62 62 61 61 60 60 60 60 60 60 59 59 58 57 55 53 52 50 49 48 48 47 46 45 43 42 41 41 41 41 41 41 41 41 41 41 41 42 42 43 45 46 47 48 49 49 49 50 50 51 51 50 50 51 51 51 52 52 52 51 50 49 49 51 53 53 52 52 53
57 57 57 56 56 57 58 58 58 59 59 60 60 61 61 61 61 61 60 60 60 60 60 60 60 60 60 60 58 57 55 54 52 50 49 48 47 46 45 44 43 41 40 40 39 39 39 39 39 39 39 39 39 40 40 41 42 43 44 45 45 46 47 48 48 49 49 49 50 50 50 51 51 52 52 51 50 49 49 50 52 52 52 52 53 54
56 55 55 55 56 57 57 57 57 58 59 59 60 60 60 60 60 60 60 60 60 61 61 61 60 60 59 58 57 55 53 52 50 49 48 47 46 44 43 42 41 40 39 38 38 37 37 37 37 37 37 37 38 38 39 40 41 41 42 43 43 44 45 46 46 47 47 48 48 49 50 50 51 51 52 52 51 51 51 52 53 53 53 54 54 54
55 54 54 54 54 55 56 56 57 57 58 58 59 59 59 59 60 60 61 62 62 62 61 60 59 58 57 56 54 53 51 50 49 48 46 45 44 42 41 40 39 38 37 36 36 35 35 35 35 35 35 36 36 37 38 39 40 41 41 41 42 42 43 44 45 45 46 47 48 48 49 50 51 51 52 52 52 52 52 53 54 54 54 54 54 53
55 54 52 52 53 54 54 55 56 56 56 56 57 58 58 59 60 61 62 63 62 62 61 59 58 56 54 53 52 51 50 49 48 46 45 43 42 40 39 38 37 37 36 35 35 34 34 34 34 34 34 34 35 36 37 38 39 39 40 40 40 41 42 42 43 44 45 46 47 48 48 49 50 50 50 50 50 51 51 52 52 52 52 51 51 50
54 53 52 51 51 53 54 54 54 54 53 53 55 56 58 59 61 62 62 62 62 61 60 58 56 54 52 51 50 50 49 48 46 45 43 42 40 39 38 37 37 36 35 35 34 34 33 33 33 32 32 33 33 34 36 37 38 38 38 38 39 39 40 41 42 43 44 45 46 46 47 47 47 47 47 47 47 48 49 49 49 48 48 48 47 47
51 51 51 50 50 51 53 53 52 51 51 52 53 56 58 60 61 62 62 61 60 59 58 57 55 53 51 50 49 48 47 46 45 43 42 41 39 38 37 37 36 35 35 34 33 33 32 31 31 31 30 31 32 33 34 35 36 36 36 37 37 38 39 39 41 42 43 44 44 45 45 45 45 45 44 44 44 44 45 45 45 44 44 45 45 45
49 48 48 49 49 48 48 49 50 50 51 52 54 56 58 60 61 62 61 59 57 56 56 56 55 53 51 49 47 46 45 44 43 42 41 40 39 38 37 36 36 35 34 33 32 32 31 30 30 29 29 30 30 31 32 33 34 34 35 35 35 36 37 38 39 41 42 43 43 44 44 44 43 42 41 41 41 41 41 41 41 41 42 43 43 43
47 46 46 46 46 46 45 47 49 51 52 53 55 56 57 58 60 62 63 61 58 55 54 54 53 52 50 48 46 45 44 43 43 41 40 40 39 38 38 37 36 35 34 33 32 31 31 30 29 29 29 29 29 30 31 32 32 33 33 34 34 35 36 37 38 40 41 41 42 42 42 41 40 38 38 38 38 39 39 39 39 40 40 41 42 42
45 45 44 43 43 44 46 48 50 51 53 54 56 57 57 58 59 62 64 64 61 57 55 52 50 49 48 47 46 45 44 44 43 43 42 41 40 40 40 39 38 37 35 34 33 32 32 31 31 30 29 29 29 29 30 30 31 31 32 32 33 34 35 36 37 38 39 39 40 39 38 37 36 35 35 36 37 38 38 38 38 39 39 40 41 41
44 44 44 44 45 46 48 50 52 54 55 56 58 60 61 61 61 62 64 63 61 57 54 52 49 47 46 45 46 46 45 45 45 44 44 43 43 43 44 43 42 40 38 37 36 34 33 33 32 31 30 29 29 29 29 29 30 31 31 32 33 33 34 35 36 36 37 37 37 35 33 33 33 34 34 36 36 37 37 38 38 38 39 40 41 41
44 46 47 49 50 51 52 54 55 57 57 58 59 61 62 63 63 63 63 62 58 54 52 50 49 47 46 46 46 47 47 47 47 46 46 45 45 46 46 47 45 43 41 40 38 36 35 34 34 32 31 30 29 28 28 28 29 30 31 31 32 33 33 34 34 35 35 35 34 32 31 32 33 34 34 35 36 37 38 38 38 39 39 40 41 41
45 47 49 51 53 54 55 56 57 58 59 60 61 62 63 64 63 62 61 59 55 51 49 49 48 47 47 47 47 48 48 49 49 48 48 47 46 46 47 48 47 45 42 41 39 37 35 35 34 33 31 30 29 28 28 28 28 29 30 31 32 32 33 33 34 34 34 34 34 33 33 34 35 35 35 36 37 37 38 39 39 40 40 41 41 42
44 46 49 51 53 55 55 56 58 59 60 61 62 63 63 63 61 59 57 54 51 49 48 48 49 49 49 48 48 48 48 49 50 50 49 48 46 45 46 47 46 45 42 40 39 37 36 34 33 32 31 29 28 27 27 27 28 28 29 30 31 32 33 33 33 34 35 35 35 35 36 37 37 37 37 37 38 39 39 40 41 41 42 43 43 44
44 46 48 50 52 54 55 56 58 59 61 62 62 62 61 60 57 54 52 50 48 48 48 49 51 52 52 51 49 47 48 49 50 50 50 48 46 44 44 45 45 44 41 39 38 36 35 34 32 31 30 29 27 27 26 27 27 28 29 29 31 32 33 33 34 34 35 36 37 37 38 38 39 39 39 40 40 41 41 42 42 43 44 44 44 44
45 46 48 50 52 54 56 57 58 59 60 61 60 58 56 53 51 49 48 47 47 48 48 49 50 52 53 53 50 47 46 48 49 49 49 48 45 43 42 42 43 42 40 38 37 35 34 33 31 30 29 28 27 27 26 26 27 27 28 29 30 31 32 34 34 35 36 37 37 38 39 40 40 41 42 42 42 42 43 43 43 43 44 43 44 44
47 48 49 52 54 56 57 58 58 59 59 58 56 54 52 49 48 47 47 47 47 48 49 49 50 50 51 51 50 47 45 46 47 48 48 47 45 43 41 41 41 41 39 38 36 34 33 32 30 29 28 28 27 26 26 26 26 26 27 28 29 30 32 33 34 35 36 36 37 38 39 40 42 42 43 44 44 44 44 44 44 44 43 43 43 43
49 50 51 53 55 57 58 57 56 56 55 53 51 50 49 48 47 47 48 48 48 48 48 49 49 49 49 49 48 46 44 44 45 46 47 47 45 42 40 40 40 40 38 36 34 33 32 30 29 28 27 26 25 24 24 24 24 25 26 27 28 30 31 33 34 35 36 36 37 38 39 40 42 43 44 44 44 44 44 44 45 45 45 44 44 45
51 53 53 54 56 57 57 55 53 51 49 48 47 46 47 47 47 48 47 47 47 47 47 48 48 48 47 47 46 44 43 43 44 45 46 46 45 42 39 39 39 39 37 35 33 31 30 29 28 26 25 24 22 22 21 22 23 24 25 27 28 30 31 32 33 34 35 36 36 37 38 39 41 42 43 44 44 44 44 44 45 45 46 47 47 48
53 55 55 55 55 55 54 52 49 46 44 44 43 44 45 46 47 47 47 46 46 46 46 46 46 46 45 45 44 43 41 41 42 44 45 46 45 42 38 38 37 37 36 34 31 29 28 27 25 24 23 22 21 20 21 22 23 24 25 27 28 29 30 31 32 32 33 34 35 36 37 38 39 40 41 41 42 42 43 43 44 45 47 49 49 50
54 55 55 54 53 51 49 47 45 43 41 41 41 42 43 44 45 45 45 45 45 45 45 45 45 45 44 44 43 42 40 40 40 42 43 45 44 41 38 37 36 36 35 33 31 29 28 26 25 24 23 22 21 21 21 22 23 24 25 26 27 28 29 29 30 31 32 32 33 34 35 36 37 38 39 39 39 40 42 43 44 46 49 50 51 51
54 53 52 50 48 46 44 43 41 40 39 39 40 41 41 42 42 43 43 43 43 44 44 44 44 44 43 43 42 41 39 38 38 39 41 42 42 40 37 36 36 35 34 32 30 30 29 28 27 25 24 23 21 20 20 20 22 23 24 25 26 27 28 29 29 30 31 32 33 34 34 35 36 36 37 37 39 41 43 45 47 50 51 52 52 51
50 49 47 45 43 41 39 38 38 38 38 38 39 40 40 40 41 41 41 41 41 41 42 42 43 43 42 42 41 39 37 36 36 37 38 40 40 39 37 35 35 35 34 32 31 31 31 30 28 27 25 23 21 19 19 19 21 22 23 25 26 26 27 28 30 31 31 32 33 33 33 34 34 35 36 38 40 42 45 47 49 51 53 54 53 53
44 43 41 39 37 36 36 36 36 36 36 37 37 38 38 39 39 39 39 39 38 38 39 40 41 41 41 41 40 39 37 35 34 35 36 38 40 39 36 35 35 36 36 34 33 33 33 32 30 28 26 24 22 20 19 20 21 23 24 25 25 26 27 28 29 30 31 31 31 32 32 32 33 34 36 38 40 42 45 47 49 51 52 53 54 53
38 36 35 34 34 34 34 34 34 34 34 34 34 34 35 36 37 37 36 36 36 36 37 39 40 41 41 40 40 39 37 35 34 34 35 37 39 39 37 36 36 37 38 37 36 35 34 33 31 29 28 26 24 22 21 22 23 24 24 25 25 26 27 28 29 29 29 30 30 30 31 31 32 33 35 37 39 40 42 44 46 48 49 50 51 52
34 33 33 33 33 33 33 33 33 32 31 31 31 30 31 32 33 34 34 34 34 35 36 38 39 40 41 41 40 38 37 35 34 34 35 37 39 39 38 38 38 38 39 39 37 35 33 32 31 30 29 28 26 26 25 25 25 26 25 25 25 26 27 27 28 28 28 28 29 29 30 31 32 33 34 36 37 38 40 41 42 43 45 46 47 49
33 33 33 33 33 33 32 31 30 29 29 28 27 27 27 29 30 31 32 32 33 34 36 37 38 40 40 41 40 39 36 35 34 34 35 37 38 39 38 38 38 38 39 40 38 35 32 31 31 31 30 29 28 28 27 27 27 26 26 25 25 25 26 26 26 26 27 28 28 29 30 30 31 32 33 34 35 36 37 38 39 39 41 42 44 46
34 34 34 33 32 31 30 29 28 27 26 25 25 25 26 27 28 30 31 32 33 34 36 37 38 39 40 41 41 39 37 34 33 33 34 36 38 38 38 38 37 37 38 40 39 37 33 30 30 31 31 30 29 27 27 26 26 25 25 24 24 24 24 23 24 25 25 26 27 27 28 29 30 30 31 32 33 33 34 34 35 36 37 39 40 42
35 35 34 32 31 29 28 27 26 25 24 24 24 25 26 27 28 29 31 32 33 34 36 37 37 38 38 39 40 40 38 35 32 32 33 35 37 37 37 38 38 37 37 38 39 39 37 32 29 29 30 29 27 26 25 24 24 23 23 23 23 22 22 21 22 23 23 23 23 24 24 25 25 26 27 28 28 29 29 30 31 32 33 34 35 36
35 34 33 31 29 28 26 25 24 24 24 24 25 25 26 27 29 30 31 32 33 34 35 36 37 37 37 38 39 39 38 35 33 32 33 35 37 37 37 38 38 38 36 36 37 38 39 37 32 29 28 27 26 24 23 22 22 21 21 21 21 21 20 20 20 20 20 19 19 19 19 19 20 21 21 22 23 23 24 24 26 27 28 29 30 30
35 33 31 29 27 26 25 24 24 25 25 26 26 27 27 28 29 30 31 32 33 33 34 35 36 37 37 37 37 37 37 35 33 32 33 34 36 37 37 37 38 38 37 36 36 37 38 38 35 32 29 26 24 23 22 21 21 20 20 21 21 20 20 19 18 18 17 16 15 15 15 15 16 16 17 17 18 19 19 20 21 23 24 25 25 26
33 31 29 27 25 24 24 24 25 25 26 27 27 28 28 29 29 30 31 31 32 32 33 34 35 35 36 37 37 36 35 34 32 32 32 33 35 36 37 37 37 38 38 37 37 37 37 36 35 33 30 26 23 21 21 21 20 19 19 20 20 20 19 17 16 15 14 14 14 14 14 14 14 14 14 15 15 15 16 17 18 19 20 21 22 22
30 28 26 25 25 25 25 25 26 26 27 27 28 28 29 29 30 30 31 31 31 32 32 32 33 33 34 35 36 36 35 33 31 31 31 32 34 35 36 36 36 37 37 37 37 37 37 35 34 33 31 26 22 19 18 18 18 18 17 17 18 17 17 15 15 14 13 13 14 14 14 14 14 14 14 14 14 14 14 15 15 16 17 18 19 19
28 26 25 25 26 26 27 27 27 27 27 27 28 28 28 29 29 30 30 31 31 31 31 32 32 32 32 33 34 34 34 32 31 30 30 31 33 34 35 35 35 35 36 36 36 36 36 35 33 31 29 27 23 18 15 14 14 14 14 14 14 14 14 13 13 13 13 13 13 13 13 13 13 13 14 14 14 14 13 13 13 13 14 15 16 16
27 26 26 26 27 28 28 28 28 28 28 28 28 28 28 29 29 30 30 31 31 31 31 31 31 31 31 31 31 32 32 31 31 30 30 30 31 33 34 34 34 34 34 35 35 35 35 34 32 30 27 25 23 19 16 13 12 11 11 11 11 11 11 12 13 13 13 12 12 12 11 12 12 12 12 12 12 13 13 12 12 12 12 12 13 13
27 27 27 28 28 29 29 29 28 28 28 28 28 28 29 29 29 30 30 31 31 32 32 32 32 31 30 29 29 29 30 30 30 29 29 29 30 31 32 33 33 32 32 32 33 33 33 33 32 30 26 22 20 18 16 14 12 9 8 8 9 10 11 12 12 12 12 11 11 11 11 11 11 11 11 10 9 9 10 11 11 11 11 11 11 11
27 28 28 28 29 29 29 28 28 28 28 28 28 29 29 29 29 30 30 31 32 32 33 33 33 31 30 29 28 28 28 28 28 28 28 28 29 29 30 31 31 31 30 30 30 30 30 30 30 28 25 22 18 15 13 12 11 9 8 8 9 10 11 12 12 11 11 10 9 9 10 10 11 13 13 12 9 6 5 5 7 8 9 10 9 8
28 28 28 28 28 28 28 28 28 29 29 29 29 29 29 29 29 29 30 31 32 33 33 33 33 32 30 28 27 27 26 26 27 27 27 27 27 28 28 29 30 30 30 29 28 28 28 27 26 24 22 20 17 14 12 10 10 9 9 9 9 10 11 11 11 10 9 9 9 9 9 10 11 13 15 15 14 11 7 4 1 2 5 8 8 8
28 28 28 28 28 28 28 28 29 29 29 29 29 29 29 30 30 30 30 30 31 32 33 33 33 31 29 28 26 26 25 25 25 26 26 26 26 27 27 28 29 29 29 28 27 25 24 23 22 19 18 16 14 12 11 10 10 10 10 11 11 11 11 10 10 9 9 9 9 10 11 11 12 13 14 16 17 16 14 12 10 6 2 4 7 8
28 28 28 28 28 28 29 29 29 30 30 30 29 29 29 29 29 30 30 31 31 32 33 33 33 31 29 27 25 24 24 24 25 25 25 25 26 26 27 27 28 28 28 27 25 23 21 19 18 16 14 12 11 10 9 10 10 11 11 12 12 11 11 10 9 9 9 10 10 11 12 13 13 13 13 14 15 15 15 15 14 12 8 3 5 8
27 27 27 28 29 29 30 30 31 31 30 29 28 28 28 28 29 29 30 31 31 32 33 33 32 30 29 27 25 24 23 24 24 24 25 25 25 26 26 26 26 26 25 24 22 19 16 15 13 12 11 10 9 10 10 11 11 11 11 12 13 13 13 13 12 11 12 13 14 14 14 13 13 13 13 13 13 12 11 11 10 9 7 3 3 7
27 27 28 29 30 31 31 32 32 31 30 29 27 27 27 27 28 29 29 30 31 31 32 32 31 29 28 27 25 24 23 23 23 24 24 24 25 25 25 25 24 23 22 20 18 15 12 10 9 9 9 9 10 11 11 12 12 12 12 13 14 16 17 16 16 16 16 18 19 19 18 16 14 13 13 12 10 9 8 7 5 3 1 1 3 5
27 28 29 30 31 32 33 32 32 30 29 27 26 26 26 27 27 28 29 29 30 31 31 31 30 29 28 27 26 25 24 23 23 23 24 24 24 24 24 23 22 20 18 15 13 11 10 9 8 9 10 11 12 12 12 12 13 13 13 14 16 17 18 18 18 19 20 21 21 22 22 20 18 16 13 11 8 7 6 5 4 3 2 3 4 5
28 29 31 32 33 33 33 32 31 29 27 26 26 26 26 26 27 27 28 29 30 30 30 29 29 28 28 27 26 26 25 25 24 24 24 24 23 23 22 20 19 16 14 12 10 10 10 10 11 11 12 13 13 13 13 14 15 16 17 18 19 20 20 21 21 21 21 21 21 22 24 23 20 17 15 11 7 4 4 4 3 3 3 5 6 6
29 31 32 33 34 33 32 31 29 28 26 25 25 25 25 26 26 27 28 29 29 29 29 28 28 27 27 26 26 26 26 26 26 25 24 24 22 21 19 18 16 14 12 11 11 11 12 13 14 14 14 14 14 15 15 16 18 20 21 22 22 23 24 23 23 22 21 20 20 22 24 23 21 19 17 13 9 6 5 6 7 8 7 7 8 9
31 32 33 34 34 33 31 30 28 27 26 25 25 25 25 25 26 27 28 28 29 28 28 27 27 27 26 26 26 27 27 27 26 26 25 23 21 20 18 16 15 14 13 13 13 13 14 15 15 15 15 15 16 17 19 20 21 22 23 24 25 26 26 24 23 21 20 19 20 22 23 23 22 20 18 14 11 9 8 8 8 9 8 8 10 11
32 33 34 34 33 31 30 28 27 26 26 25 25 25 25 24 25 26 28 28 28 28 28 27 27 26 26 26 26 26 26 26 26 25 24 23 21 19 17 16 15 14 14 14 15 15 16 16 16 16 16 16 18 20 23 24 24 24 24 25 26 27 26 24 22 20 19 19 21 22 23 22 21 18 15 13 10 8 7 6 6 7 8 9 10 12
32 33 33 32 31 29 28 28 27 26 26 26 26 26 25 24 23 24 26 27 28 28 27 27 27 27 27 26 26 26 26 26 25 25 24 22 20 18 16 15 15 15 15 15 15 16 16 16 16 16 16 17 18 21 23 25 25 25 26 27 27 26 24 22 20 19 18 19 20 21 21 21 19 17 13 10 7 5 4 4 4 5 8 9 10 12
33 33 32 31 29 28 27 27 26 26 26 26 26 26 26 24 23 22 23 25 26 27 27 27 26 26 26 26 26 26 25 25 25 24 23 21 19 17 15 15 15 16 15 15 16 16 17 17 17 17 17 18 19 20 23 24 26 27 27 27 26 24 22 21 19 19 18 18 19 19 19 19 18 15 12 9 6 4 4 3 2 4 7 9 10 11
Wind_Direction
301 301 301 301 302 302 301 301 301 301 301 301 301 302 302 302 302 302 303 304 304 305 305 305 306 306 306 306 306 306 306 305 305 304 302 301 299 297 295 294 292 291 290 288 286 284 283 281 280 278 277 276 275 273 271 269 266 265 263 262 262 262 262 262 262 263 263 263 263 263 263 263 262 262 261 260 259 259 259 260 261 261 261 260 258 256
302 302 302 302 302 302 301 301 301 302 301 301 302 302 302 303 303 303 304 305 305 306 306 306 307 307 307 306 306 306 305 305 304 303 301 299 297 296 295 295 294 293 291 289 287 285 283 281 280 280 279 279 278 276 274 271 268 266 264 263 262 262 263 263 263 263 264 263 263 263 262 262 261 261 261 260 258 258 257 258 259 260 260 260 260 259
302 302 302 303 303 302 301 301 302 302 302 302 302 302 303 303 304 305 306 307 307 307 307 307 307 307 306 306 305 305 304 304 303 301 300 298 297 296 296 296 296 295 293 291 288 285 284 282 281 281 280 280 279 277 275 273 270 268 266 264 264 263 263 263 264 264 264 264 264 264 263 262 262 261 261 261 260 260 259 258 258 258 259 260 260 259
303 303 303 303 303 302 302 302 302 302 302 302 303 303 304 305 306 307 308 308 309 308 308 308 308 307 306 305 304 304 303 303 302 301 299 298 298 297 298 298 297 296 294 292 289 287 285 283 282 281 281 280 279 278 276 274 272 269 268 266 265 264 264 264 264 264 265 265 264 264 263 262 262 261 260 260 260 259 258 258 257 257 257 258 259 259
303 304 303 303 302 302 302 302 302 303 303 303 304 305 306 307 308 308 309 309 309 309 309 308 307 306 305 305 304 304 303 303 302 301 300 300 300 300 300 299 298 297 294 292 289 287 285 284 283 282 281 280 279 278 276 275 273 271 269 267 266 265 265 264 264 264 264 264 264 263 263 262 261 260 260 259 259 258 256 255 255 255 256 257 258 259
303 303 303 303 302 302 302 302 303 303 304 305 306 307 308 308 309 309 309 309 309 309 309 308 307 306 305 305 304 304 304 303 302 302 301 301 301 301 301 300 298 296 294 292 290 288 286 284 283 282 281 280 279 278 276 275 273 271 270 268 267 266 265 264 264 263 263 263 263 262 262 262 261 261 260 260 259 258 257 256 256 256 257 258 258 259
303 303 303 302 302 302 302 303 304 306 307 308 309 309 309 308 308 308 308 308 308 308 308 307 306 306 306 305 305 305 304 303 303 302 302 302 302 302 301 300 298 296 295 293 291 289 287 285 284 282 281 280 279 277 276 274 273 271 270 268 267 266 265 264 264 264 263 263 263 263 263 263 262 262 262 261 261 260 259 259 259 259 260 260 260 260
302 302 302 302 302 302 303 305 307 308 309 309 308 308 308 307 306 306 306 306 307 307 307 307 307 307 307 306 306 305 304 304 304 303 303 303 303 302 301 300 298 297 296 294 293 291 289 286 284 282 281 280 279 277 276 274 272 271 270 269 268 267 266 266 265 265 264 264 264 264 264 264 264 264 263 262 262 261 261 261 261 262 262 261 260 259
302 302 302 302 304 306 307 308 308 308 307 306 305 305 305 305 305 305 305 305 306 307 309 309 309 308 307 307 306 305 305 304 304 304 304 304 303 302 301 300 299 298 297 296 294 292 290 287 285 284 282 281 279 277 275 273 272 271 270 270 269 268 268 267 267 266 266 266 266 266 266 266 266 265 264 264 263 262 262 262 262 262 261 260 259 258
302 303 303 304 307 309 309 308 306 305 304 303 302 302 302 303 304 305 306 306 307 309 310 311 310 309 308 307 306 306 306 305 305 305 304 304 303 302 301 300 300 299 299 298 296 294 292 290 288 286 284 282 280 277 274 273 272 271 270 270 269 268 268 268 267 267 267 267 267 267 267 267 267 267 266 265 264 263 262 262 261 260 259 258 258 257
304 304 306 308 309 309 306 303 302 302 302 302 301 301 302 304 306 308 309 309 310 310 311 311 310 309 308 307 307 307 307 307 306 305 305 305 304 304 303 303 302 302 302 300 299 297 294 293 291 289 286 283 280 277 275 273 272 271 270 269 269 268 268 267 267 267 267 267 267 267 267 268 268 268 267 266 264 262 261 260 259 257 256 255 255 255
306 307 309 309 307 304 301 300 301 302 302 303 304 305 306 308 309 310 310 311 311 311 311 310 309 308 308 308 309 309 309 309 308 308 307 307 307 307 307 306 306 305 304 303 301 299 297 295 293 291 288 285 282 278 276 274 272 271 270 269 268 267 267 266 266 267 267 267 267 267 268 269 269 268 267 265 263 261 260 258 257 255 254 253 253 252
308 310 311 308 305 302 301 302 303 304 305 306 307 308 309 310 311 311 310 310 310 310 310 309 308 307 308 309 311 311 312 311 311 310 310 310 310 310 310 309 308 307 306 304 302 300 298 297 295 292 289 286 283 279 276 274 272 270 269 268 267 266 266 266 266 266 266 266 266 267 268 269 268 266 265 263 262 260 259 257 255 254 252 252 251 251
312 313 313 310 307 306 305 306 306 307 308 308 309 309 309 310 310 310 309 308 309 309 309 308 308 308 309 311 312 313 314 313 313 312 312 311 311 311 310 309 308 307 306 304 302 300 298 297 295 292 290 286 283 279 276 273 271 269 268 266 265 265 265 265 265 265 266 265 266 266 265 264 263 262 261 261 260 258 257 255 254 252 251 250 250 250
316 315 311 308 306 306 306 306 306 307 307 308 308 308 308 308 308 308 308 308 308 309 309 309 308 308 309 311 313 314 314 314 314 313 312 311 310 309 309 308 306 305 304 303 301 299 298 296 294 292 289 285 282 278 275 272 269 267 266 265 264 263 263 262 262 263 264 263 262 260 258 256 255 254 255 256 256 256 254 253 252 251 250 249 249 249
313 309 304 302 301 302 303 304 304 305 305 306 307 307 307 307 307 308 308 308 308 309 310 311 310 310 310 311 312 313 314 313 312 311 310 309 308 308 308 307 305 304 303 302 301 299 298 296 293 291 288 284 280 277 274 271 268 266 265 263 262 261 260 259 261 263 263 261 258 256 253 251 250 250 250 251 251 252 251 250 250 249 249 248 248 248
305 301 298 298 298 299 301 302 302 303 304 305 306 306 306 307 307 308 308 308 310 311 312 312 312 311 311 311 312 313 313 312 310 309 308 307 307 308 307 307 306 305 304 302 301 299 298 296 293 290 287 283 280 276 273 271 268 266 264 262 261 259 258 257 259 261 260 258 257 255 254 252 251 250 250 250 250 249 249 249 249 249 249 249 248 247
300 298 298 298 298 299 300 301 302 303 304 305 306 306 307 307 308 309 309 310 311 312 313 312 311 310 310 310 312 313 313 312 310 309 308 308 308 308 309 308 307 306 305 303 302 300 299 296 293 290 286 283 279 276 273 271 268 266 263 261 259 258 257 256 256 257 257 257 256 255 254 253 252 252 252 251 251 251 251 250 250 250 250 250 249 248
300 299 299 299 299 299 300 301 302 304 305 306 307 308 308 309 310 310 311 312 312 312 312 311 310 309 309 310 312 314 314 312 311 310 309 309 309 310 311 310 309 307 305 304 303 301 299 296 293 289 285 282 278 275 272 270 268 265 263 261 259 259 259 259 259 259 259 259 258 257 255 254 253 253 253 253 253 253 252 252 252 251 251 250 250 249
299 299 298 299 299 300 301 303 304 306 307 308 309 309 310 311 311 311 311 312 311 311 310 309 309 309 310 310 312 314 315 314 313 311 311 310 310 311 313 312 310 307 305 304 303 302 300 296 291 287 283 279 276 274 272 270 269 268 266 265 264 264 264 265 265 265 265 264 263 261 259 257 255 254 253 253 253 253 253 253 252 252 250 250 249 248
297 298 299 300 300 301 303 305 307 308 309 310 311 311 311 311 311 311 311 311 311 310 310 310 310 310 311 311 313 315 317 316 314 313 312 310 310 312 314 314 311 308 306 305 304 303 299 295 290 286 282 279 278 277 278 278 277 276 274 273 272 271 271 270 270 270 269 268 266 264 262 260 257 255 254 252 251 251 251 252 252 252 251 249 248 247
298 299 301 302 303 303 305 307 309 311 311 312 311 311 310 310 311 311 311 311 311 311 311 310 311 311 312 312 314 317 318 317 315 313 312 310 311 313 316 315 312 309 307 307 306 304 301 296 292 289 287 286 287 288 289 288 287 284 282 279 278 276 275 274 274 272 271 269 267 266 264 262 259 257 255 253 252 251 250 250 251 251 250 249 248 247
300 301 303 304 305 306 308 309 311 312 312 312 311 311 311 311 311 311 311 311 311 311 311 311 312 312 313 314 315 317 319 318 316 314 312 310 312 315 317 316 313 310 309 309 309 307 304 301 298 296 295 296 297 298 296 294 291 288 285 283 281 280 279 278 276 274 272 270 268 266 264 262 260 258 256 253 252 251 249 249 249 249 248 247 247 246
302 303 304 305 307 308 309 310 311 312 312 312 312 312 312 312 311 311 311 311 311 312 312 312 312 313 314 315 316 317 319 319 317 314 312 312 313 315 316 316 314 312 311 311 312 311 308 306 303 302 301 301 301 301 299 295 292 289 287 285 284 283 282 281 279 277 274 272 270 267 265 262 260 258 256 253 251 249 247 246 245 244 245 245 245 245
302 303 305 306 307 309 310 311 312 313 314 314 314 314 313 312 311 310 311 311 312 312 312 311 311 312 313 315 316 317 320 319 318 316 315 314 314 314 315 316 316 314 313 314 314 314 312 309 306 305 303 303 303 303 301 297 294 291 289 288 287 286 285 283 281 278 276 273 271 268 265 262 259 258 257 254 250 248 245 244 244 244 244 244 245 245
304 305 306 308 309 310 312 313 313 314 315 315 315 314 312 311 310 310 310 311 312 312 311 311 311 312 314 315 316 318 320 321 320 319 318 316 314 314 316 318 318 317 316 316 317 316 314 311 309 308 306 306 306 306 305 301 297 295 293 291 290 288 286 284 281 279 276 274 271 268 265 262 259 257 256 254 251 249 248 246 246 245 246 246 246 246
307 308 310 312 313 314 315 316 316 316 316 315 313 311 310 308 308 309 310 312 313 312 311 311 312 313 315 316 317 319 321 322 322 322 320 317 315 315 317 319 320 318 317 317 317 317 314 312 311 311 310 310 311 311 310 307 303 300 298 297 294 292 288 286 283 281 278 275 272 269 266 263 260 259 257 255 253 252 250 249 248 248 248 248 247 247
313 314 316 317 318 318 318 318 318 317 316 314 311 309 308 307 308 309 311 313 313 313 312 312 313 314 315 316 318 320 321 323 325 325 322 318 315 316 318 320 319 318 318 317 317 316 315 314 314 314 314 315 316 317 316 313 310 307 305 303 299 295 292 289 286 283 280 276 273 270 267 265 263 261 259 258 256 255 253 252 251 250 249 249 249 248
318 319 320 321 321 321 320 319 318 316 314 311 310 309 308 308 309 311 313 314 314 314 313 313 314 315 316 317 319 320 323 326 328 327 323 318 316 316 318 318 318 318 318 318 318 317 316 316 317 318 318 319 320 320 319 317 314 312 309 305 301 297 294 290 287 284 280 277 274 272 270 268 266 264 262 261 260 258 256 254 253 252 251 250 250 248
322 323 324 324 324 322 320 318 316 314 312 311 310 310 311 311 312 313 314 315 315 315 315 315 316 316 317 318 319 321 324 328 330 327 322 317 315 315 317 317 317 318 319 320 319 318 317 318 319 320 321 322 323 323 321 319 317 314 310 306 301 298 296 293 290 286 283 281 279 277 276 274 272 270 268 266 265 263 262 259 257 255 253 252 251 250
325 326 327 326 325 322 320 317 315 314 313 313 314 314 315 315 316 317 317 318 317 317 317 316 317 317 318 318 318 320 324 329 330 327 321 316 315 316 317 317 318 319 321 321 319 318 317 318 320 321 323 324 325 326 324 322 319 315 311 306 303 302 302 300 297 294 292 290 289 287 285 283 281 279 277 275 273 271 269 267 263 260 258 256 255 253
328 328 327 326 324 321 319 317 316 316 317 318 320 320 321 321 321 321 321 320 320 319 318 318 318 318 319 318 318 319 323 328 330 327 321 317 316 317 318 318 318 320 321 321 319 318 317 318 321 323 325 328 330 331 329 327 323 318 313 310 310 311 312 310 308 307 307 306 304 302 299 296 294 291 288 286 283 281 278 274 270 267 264 262 259 257
328 328 326 324 322 320 319 319 320 322 323 325 326 327 327 326 326 325 324 323 322 321 320 319 319 320 320 320 320 321 324 328 329 326 322 318 316 317 318 318 318 319 321 321 320 319 317 318 322 325 328 332 335 336 335 331 326 322 319 318 318 320 321 320 320 321 324 324 323 320 316 311 307 304 301 298 295 291 287 282 277 273 269 266 263 259
327 326 325 323 322 322 323 325 326 328 330 331 332 332 331 331 330 328 327 326 325 324 323 322 321 321 321 321 322 323 326 328 328 325 322 318 316 316 317 317 318 319 320 320 320 320 319 320 323 326 330 335 339 341 339 334 329 326 325 324 325 326 328 329 333 336 339 338 335 331 327 322 318 315 312 309 305 300 295 290 283 278 273 269 265 260
326 326 325 325 325 327 329 331 333 335 336 336 336 336 335 334 333 332 331 330 329 328 327 326 324 323 322 322 322 324 326 328 327 325 321 318 316 315 316 317 318 319 319 319 320 319 319 321 324 327 330 335 340 344 342 337 332 329 329 329 329 330 334 338 343 347 347 343 338 334 330 326 322 319 315 312 308 304 299 294 288 282 276 271 266 260
326 327 328 330 332 333 335 337 338 339 340 340 340 339 338 336 336 335 335 334 334 333 332 330 329 327 326 324 324 324 326 327 327 325 322 319 316 315 314 316 318 319 318 319 319 319 319 320 323 327 330 334 339 344 346 341 337 335 335 335 335 337 340 345 348 350 348 345 341 337 333 329 326 322 317 312 308 305 303 299 294 288 281 274 267 260
329 331 334 336 337 338 339 340 342 342 342 343 342 341 340 338 338 338 338 338 338 338 337 335 334 332 331 329 327 326 326 326 326 325 322 320 317 315 314 316 318 318 317 317 318 319 319 320 323 327 332 335 340 344 347 348 348 348 347 347 347 348 350 352 352 351 349 348 348 346 344 341 337 332 326 318 312 308 306 304 301 295 288 279 269 259
333 336 338 340 340 341 341 343 344 344 344 344 343 342 340 339 339 339 340 341 341 341 340 340 339 337 336 333 331 329 328 327 326 324 323 321 318 316 315 316 317 318 318 317 318 318 319 320 323 327 332 338 344 348 350 355 1 7 9 6 2 360 0 360 357 355 354 354 356 357 355 353 351 351 348 340 326 312 303 300 298 294 290 283 272 258
337 339 341 342 342 343 343 344 345 345 345 344 342 341 339 338 339 340 341 342 343 343 342 342 341 341 339 337 335 332 330 328 326 325 323 322 320 318 317 316 317 318 318 318 318 319 320 321 323 327 333 340 349 357 1 7 15 24 28 22 13 6 5 3 1 359 359 359 360 358 356 352 351 353 356 360 359 348 316 287 280 280 279 274 266 251
340 341 343 344 344 345 345 346 346 345 344 342 341 339 338 338 338 339 341 343 344 344 343 343 343 342 342 340 338 335 332 330 328 327 325 323 322 320 318 317 318 318 319 320 320 320 321 322 325 330 336 343 351 2 14 23 31 35 34 28 20 13 9 6 3 3 4 3 360 354 348 342 339 341 345 351 358 6 17 33 44 248 248 245 240 230
341 343 344 345 346 347 347 346 345 344 342 341 339 338 338 338 338 340 342 343 344 344 344 343 343 344 344 343 341 339 336 334 332 330 328 326 324 322 320 319 319 319 320 321 322 323 324 325 329 335 342 350 0 13 27 36 41 40 36 31 27 23 17 11 9 11 15 13 5 357 350 345 340 338 339 344 349 356 7 21 35 50 98 201 207 205
342 344 346 347 348 347 346 345 344 342 341 340 339 339 339 339 340 341 342 343 344 344 344 343 344 345 346 347 346 343 340 338 335 333 330 328 326 324 323 322 321 321 322 323 324 326 328 330 335 342 352 3 15 29 41 48 47 42 36 32 31 29 25 20 19 21 22 19 14 8 3 357 351 347 345 347 350 354 1 9 19 29 45 96 176 189
344 346 347 348 347 346 345 343 342 341 340 339 340 340 341 342 342 342 343 343 344 344 344 344 345 346 348 349 349 348 345 342 338 335 332 330 329 327 326 325 325 324 325 325 328 332 336 340 345 353 6 23 38 49 54 56 52 44 35 30 29 30 31 28 27 25 22 18 17 16 13 6 359 353 351 351 353 356 2 9 18 28 42 73 161 186
346 347 348 347 346 344 343 341 340 340 340 342 343 344 345 345 345 344 344 344 345 345 345 346 347 348 350 351 352 350 348 345 341 338 336 334 333 332 331 330 329 329 330 331 335 342 351 359 7 18 34 49 58 62 63 60 54 45 36 30 28 27 27 25 24 21 17 15 16 17 17 15 10 4 359 355 353 353 355 0 5 13 32 172 191 193
347 347 347 345 344 342 341 340 340 341 343 346 348 349 349 348 347 347 346 346 346 347 347 348 349 351 352 353 352 351 349 347 344 342 341 340 339 337 336 335 336 337 340 344 352 2 15 29 41 53 62 65 66 65 64 60 54 47 39 34 30 27 25 23 21 17 12 9 8 9 11 13 12 10 5 1 354 346 339 332 318 297 240 201 196 196
347 346 345 343 342 341 341 341 342 344 348 350 352 353 352 351 350 350 349 349 349 349 350 351 352 353 354 354 353 352 351 349 348 347 347 346 345 344 343 344 346 351 358 7 20 34 46 57 66 70 71 69 67 65 63 59 53 48 42 37 32 29 25 22 18 14 10 5 1 1 3 5 7 6 5 7 4 350 339 342 358 34 90 145 168 182
347 345 343 342 341 341 342 343 345 348 351 354 356 356 355 354 353 353 352 352 352 352 353 354 355 356 356 355 354 353 352 352 352 353 353 353 353 353 353 356 3 12 23 35 47 59 68 73 76 76 73 70 68 65 62 58 52 47 42 38 33 28 24 19 15 11 6 1 357 357 358 359 358 358 1 7 13 19 24 32 42 56 81 122 156 174
345 343 341 340 340 342 344 346 349 351 354 356 357 358 357 357 356 355 355 356 355 355 356 357 357 358 358 357 356 355 355 355 355 356 357 359 1 3 6 12 21 33 44 55 64 71 76 78 79 78 76 75 71 67 62 57 51 46 41 37 32 27 21 17 13 8 2 358 356 356 356 355 354 354 357 3 14 29 43 48 50 57 79 121 153 170
344 341 340 340 341 344 346 349 351 353 355 356 357 358 359 359 359 358 358 359 359 359 358 358 359 359 359 359 358 358 358 358 358 359 1 4 8 12 18 26 37 47 57 66 73 77 79 79 79 79 79 78 73 66 59 54 50 46 41 37 31 24 18 14 10 6 1 358 356 355 355 355 355 355 358 3 15 37 57 63 59 61 76 111 142 162
342 340 339 340 343 346 349 351 353 354 356 356 357 358 359 360 0 1 1 2 2 1 1 360 359 359 360 360 360 360 360 0 1 2 6 10 15 21 29 38 48 57 64 71 77 80 81 81 81 81 80 77 72 65 58 53 49 46 41 36 29 22 14 10 8 6 3 360 357 355 354 353 354 355 357 4 20 50 77 86 80 73 79 104 133 156
341 340 340 342 345 348 351 353 354 355 356 356 357 357 358 359 359 1 3 4 4 3 3 2 1 0 0 0 1 1 2 2 3 6 10 15 21 28 37 48 58 65 70 75 80 83 85 85 84 82 78 73 69 64 58 53 48 45 41 35 28 20 12 9 9 8 6 3 1 359 357 357 358 360 3 12 35 73 105 121 120 99 91 108 131 153
Height
2877 2875 2873 2871 2869 2867 2864 2862 2861 2859 2855 2852 2851 2849 2847 2845 2842 2840 2838 2836 2834 2831 2829 2827 2825 2823 2822 2820 2819 2817 2816 2815 2813 2812 2810 2809 2808 2807 2805 2804 2802 2801 2800 2800 2799 2798 2797 2796 2795 2794 2793 2792 2792 2791 2790 2789 2789 2788 2788 2787 2787 2787 2787 2787 2786 2786 2786 2787 2787 2788 2789 2788 2788 2789 2789 2791 2792 2792 2792 2792 2792 2791 2790 2791 2792 2792
2872 2870 2868 2866 2865 2862 2859 2857 2856 2855 2851 2848 2846 2844 2842 2840 2838 2836 2834 2832 2830 2827 2825 2822 2820 2818 2817 2815 2814 2812 2811 2810 2808 2807 2805 2804 2803 2802 2800 2799 2797 2797 2796 2795 2794 2793 2792 2791 2790 2789 2788 2787 2787 2786 2785 2784 2784 2783 2783 2782 2782 2782 2782 2782 2782 2782 2782 2782 2782 2782 2782 2782 2782 2783 2783 2783 2785 2786 2787 2788 2787 2787 2786 2786 2787 2787
2868 2866 2863 2862 2860 2858 2855 2853 2852 2850 2847 2844 2842 2840 2838 2836 2833 2831 2829 2827 2825 2823 2821 2818 2816 2814 2812 2810 2809 2808 2806 2805 2803 2802 2801 2799 2798 2797 2795 2794 2793 2792 2791 2790 2789 2788 2787 2786 2785 2785 2784 2783 2782 2781 2780 2779 2779 2778 2778 2777 2777 2777 2777 2777 2777 2777 2777 2777 2777 2777 2777 2777 2777 2777 2778 2779 2780 2781 2783 2784 2784 2782 2782 2782 2782 2782
2864 2862 2859 2857 2855 2853 2851 2849 2847 2845 2843 2840 2838 2836 2834 2831 2829 2827 2825 2822 2820 2818 2816 2814 2812 2809 2807 2805 2804 2803 2802 2800 2799 2797 2796 2794 2793 2792 2791 2790 2789 2787 2787 2785 2784 2783 2782 2782 2781 2780 2779 2778 2777 2777 2776 2775 2774 2773 2773 2773 2773 2773 2773 2772 2772 2772 2772 2772 2772 2772 2772 2772 2772 2772 2773 2774 2776 2777 2778 2779 2778 2777 2777 2777 2778 2778
2860 2858 2856 2853 2850 2848 2847 2845 2843 2841 2838 2836 2834 2831 2829 2827 2824 2822 2820 2818 2816 2813 2811 2809 2807 2805 2803 2801 2799 2798 2797 2796 2794 2792 2791 2790 2788 2787 2787 2785 2784 2783 2782 2781 2780 2779 2778 2777 2777 2776 2775 2774 2773 2772 2771 2770 2769 2769 2769 2768 2768 2768 2768 2768 2768 2768 2768 2768 2768 2767 2767 2767 2767 2767 2768 2769 2770 2771 2772 2772 2772 2772 2772 2773 2773 2773
2855 2854 2852 2850 2847 2844 2842 2841 2839 2836 2834 2831 2829 2827 2825 2822 2820 2818 2816 2813 2811 2809 2807 2805 2803 2801 2799 2797 2795 2793 2792 2791 2789 2788 2787 2786 2784 2783 2782 2781 2780 2779 2778 2777 2776 2775 2774 2773 2772 2772 2771 2770 2769 2767 2767 2766 2765 2765 2764 2764 2764 2764 2764 2764 2764 2764 2763 2763 2763 2763 2762 2762 2762 2763 2763 2764 2764 2765 2765 2766 2767 2767 2767 2768 2769 2769
2851 2850 2848 2846 2843 2841 2839 2837 2834 2832 2829 2827 2824 2822 2820 2818 2817 2814 2812 2810 2808 2806 2803 2801 2799 2797 2795 2793 2791 2789 2788 2786 2785 2784 2782 2782 2781 2780 2779 2777 2776 2775 2774 2773 2772 2771 2770 2769 2768 2767 2767 2766 2764 2763 2762 2762 2761 2761 2760 2760 2760 2759 2759 2759 2759 2759 2759 2758 2758 2758 2758 2758 2758 2758 2759 2759 2760 2760 2761 2761 2762 2763 2763 2764 2765 2765
2846 2845 2844 2842 2840 2837 2834 2832 2830 2828 2826 2824 2821 2818 2816 2814 2813 2811 2809 2807 2805 2802 2799 2797 2794 2793 2792 2790 2787 2786 2784 2782 2781 2779 2778 2777 2777 2776 2774 2773 2772 2771 2770 2769 2768 2767 2766 2766 2764 2763 2762 2761 2760 2759 2758 2757 2757 2756 2756 2756 2755 2755 2755 2755 2755 2754 2754 2754 2754 2754 2754 2754 2754 2754 2755 2755 2756 2756 2757 2757 2758 2759 2760 2760 2760 2762
2843 2841 2839 2838 2836 2833 2829 2827 2826 2825 2824 2821 2819 2816 2814 2811 2808 2807 2805 2803 2802 2799 2796 2793 2790 2788 2787 2786 2784 2782 2780 2778 2777 2776 2774 2773 2772 2772 2770 2769 2768 2767 2766 2765 2764 2763 2762 2762 2760 2759 2758 2757 2756 2755 2754 2753 2752 2752 2752 2751 2751 2751 2751 2751 2750 2750 2750 2750 2750 2750 2750 2750 2750 2751 2751 2752 2752 2753 2753 2754 2755 2756 2756 2756 2756 2758
2841 2838 2836 2833 2832 2830 2828 2825 2823 2822 2822 2819 2817 2815 2812 2809 2805 2802 2800 2798 2797 2795 2793 2790 2787 2784 2782 2781 2780 2778 2776 2775 2773 2772 2772 2770 2769 2768 2766 2765 2764 2763 2762 2761 2760 2759 2758 2757 2756 2755 2754 2753 2752 2751 2750 2749 2749 2748 2748 2747 2747 2747 2747 2747 2746 2746 2746 2746 2746 2746 2746 2746 2747 2747 2747 2748 2749 2749 2750 2750 2751 2752 2752 2752 2752 2753
2837 2835 2832 2830 2828 2827 2826 2824 2821 2820 2819 2817 2815 2812 2811 2808 2804 2799 2795 2792 2790 2789 2788 2786 2784 2781 2778 2776 2775 2774 2773 2771 2769 2769 2768 2767 2765 2764 2762 2761 2760 2759 2758 2757 2756 2755 2754 2753 2752 2751 2750 2749 2748 2747 2747 2746 2745 2745 2744 2744 2744 2743 2743 2743 2742 2742 2742 2742 2742 2742 2742 2742 2743 2744 2744 2745 2745 2745 2745 2746 2746 2747 2747 2747 2748 2749
2834 2832 2829 2828 2827 2825 2823 2821 2819 2818 2816 2814 2811 2807 2805 2804 2802 2798 2792 2788 2786 2785 2783 2782 2780 2778 2776 2773 2771 2770 2769 2767 2766 2764 2763 2762 2761 2759 2757 2756 2755 2755 2754 2753 2752 2751 2750 2749 2748 2747 2746 2746 2745 2744 2743 2742 2742 2741 2741 2741 2740 2740 2739 2739 2739 2738 2738 2738 2738 2738 2739 2740 2741 2741 2741 2741 2741 2741 2741 2741 2742 2743 2743 2743 2744 2744
2831 2829 2827 2825 2823 2822 2820 2818 2816 2814 2812 2810 2807 2803 2800 2798 2797 2794 2791 2787 2784 2782 2780 2777 2775 2774 2773 2771 2769 2767 2765 2763 2762 2761 2759 2758 2756 2755 2753 2752 2751 2750 2750 2749 2748 2747 2747 2745 2744 2743 2742 2742 2741 2741 2740 2739 2738 2738 2737 2737 2737 2736 2736 2736 2735 2735 2734 2734 2734 2735 2736 2737 2738 2738 2738 2737 2737 2737 2737 2737 2738 2739 2739 2739 2740 2740
2827 2826 2823 2821 2819 2817 2816 2814 2812 2810 2807 2806 2803 2801 2797 2795 2793 2791 2787 2783 2781 2779 2777 2774 2772 2770 2769 2768 2767 2764 2762 2760 2758 2757 2756 2754 2753 2752 2750 2748 2747 2746 2746 2744 2743 2743 2742 2741 2740 2739 2739 2738 2737 2737 2737 2736 2735 2735 2734 2734 2733 2733 2732 2732 2732 2732 2731 2731 2732 2733 2734 2734 2734 2734 2734 2734 2734 2734 2734 2734 2734 2735 2735 2735 2736 2736
2825 2824 2821 2818 2816 2814 2813 2811 2809 2806 2804 2802 2800 2797 2795 2792 2790 2787 2784 2781 2778 2776 2774 2771 2768 2767 2766 2765 2764 2762 2760 2757 2755 2753 2752 2751 2750 2749 2747 2745 2743 2742 2742 2741 2739 2739 2739 2737 2736 2735 2735 2734 2734 2733 2733 2732 2732 2732 2731 2730 2730 2730 2729 2729 2728 2728 2727 2727 2728 2729 2728 2728 2728 2728 2728 2729 2729 2729 2729 2730 2730 2730 2731 2731 2731 2732
2824 2823 2820 2817 2814 2812 2810 2809 2806 2803 2801 2799 2797 2795 2792 2789 2787 2784 2782 2778 2776 2773 2771 2768 2765 2762 2761 2762 2762 2761 2758 2756 2753 2751 2749 2747 2747 2747 2745 2742 2739 2738 2737 2737 2736 2735 2734 2733 2732 2732 2731 2730 2730 2730 2729 2729 2728 2728 2727 2727 2727 2726 2726 2725 2726 2726 2726 2724 2723 2723 2723 2722 2722 2722 2722 2723 2723 2724 2724 2724 2725 2725 2726 2726 2726 2727
2823 2821 2817 2815 2812 2809 2807 2806 2804 2802 2799 2796 2794 2792 2790 2787 2784 2782 2779 2776 2773 2771 2768 2766 2763 2759 2756 2756 2758 2759 2757 2754 2750 2747 2745 2743 2742 2743 2742 2739 2736 2734 2733 2733 2732 2731 2730 2729 2728 2727 2727 2727 2727 2726 2726 2725 2725 2725 2724 2724 2723 2723 2722 2722 2722 2723 2721 2720 2719 2719 2718 2718 2718 2718 2718 2718 2718 2718 2719 2719 2720 2720 2721 2721 2722 2722
2819 2817 2815 2812 2809 2807 2805 2803 2801 2799 2797 2794 2791 2789 2786 2784 2782 2779 2777 2774 2772 2769 2767 2764 2762 2759 2755 2752 2752 2754 2755 2752 2748 2744 2742 2739 2738 2738 2738 2736 2733 2731 2729 2728 2727 2727 2726 2725 2724 2724 2723 2723 2723 2722 2722 2722 2722 2722 2721 2721 2720 2720 2719 2718 2717 2717 2716 2716 2716 2715 2715 2714 2714 2714 2714 2714 2714 2715 2715 2715 2716 2716 2717 2717 2718 2718
2816 2814 2812 2810 2807 2804 2802 2800 2798 2796 2794 2791 2788 2785 2782 2780 2778 2776 2774 2772 2770 2768 2765 2762 2760 2757 2755 2752 2750 2751 2752 2749 2745 2741 2738 2735 2734 2734 2735 2733 2730 2727 2726 2725 2724 2723 2722 2722 2721 2720 2720 2720 2719 2719 2719 2719 2719 2718 2718 2717 2716 2715 2715 2714 2713 2713 2712 2712 2712 2711 2711 2711 2711 2710 2710 2710 2710 2710 2711 2712 2712 2712 2713 2714 2714 2715
2813 2811 2810 2807 2804 2801 2798 2797 2795 2794 2791 2788 2785 2782 2779 2777 2775 2773 2771 2769 2767 2765 2763 2760 2757 2754 2752 2750 2748 2748 2748 2746 2742 2738 2735 2732 2730 2730 2731 2730 2727 2724 2722 2721 2721 2720 2719 2718 2717 2717 2717 2717 2717 2716 2716 2716 2716 2715 2714 2713 2712 2712 2711 2710 2709 2709 2708 2707 2707 2707 2707 2706 2706 2706 2706 2706 2706 2707 2707 2707 2708 2708 2709 2710 2710 2711
2810 2808 2806 2805 2802 2798 2795 2793 2792 2790 2788 2785 2782 2780 2777 2775 2772 2770 2768 2766 2764 2762 2759 2757 2754 2752 2750 2748 2746 2745 2745 2743 2740 2736 2732 2728 2727 2727 2728 2727 2724 2721 2719 2718 2717 2717 2716 2715 2714 2713 2713 2713 2713 2713 2713 2713 2712 2711 2710 2709 2708 2707 2707 2706 2705 2704 2704 2703 2703 2702 2702 2702 2701 2701 2701 2701 2702 2702 2703 2703 2703 2704 2704 2705 2705 2706
2807 2804 2802 2801 2799 2796 2792 2790 2788 2787 2786 2784 2782 2779 2776 2773 2770 2767 2765 2763 2761 2758 2756 2754 2752 2750 2748 2746 2744 2743 2742 2741 2738 2734 2730 2725 2723 2723 2725 2724 2721 2718 2716 2715 2714 2714 2712 2712 2711 2710 2710 2710 2711 2710 2710 2709 2709 2708 2707 2706 2705 2704 2703 2702 2701 2701 2700 2699 2698 2697 2697 2697 2696 2696 2696 2697 2698 2699 2698 2699 2700 2700 2699 2699 2700 2701
2804 2801 2799 2797 2795 2793 2790 2788 2786 2785 2783 2782 2780 2777 2774 2771 2768 2765 2762 2761 2758 2756 2754 2751 2749 2747 2746 2743 2742 2741 2740 2739 2736 2733 2729 2724 2721 2720 2722 2721 2718 2715 2713 2712 2712 2710 2709 2708 2707 2707 2707 2708 2708 2708 2707 2707 2706 2705 2703 2702 2701 2700 2699 2698 2698 2697 2696 2695 2694 2693 2692 2692 2691 2691 2691 2692 2693 2695 2694 2694 2694 2695 2694 2694 2694 2695
2801 2798 2796 2794 2793 2791 2789 2787 2785 2783 2781 2779 2777 2774 2771 2769 2766 2763 2761 2759 2756 2754 2751 2748 2746 2744 2742 2742 2740 2739 2738 2737 2735 2732 2728 2723 2720 2718 2718 2718 2716 2713 2711 2710 2709 2708 2706 2705 2705 2704 2705 2705 2706 2706 2705 2704 2703 2702 2701 2699 2698 2697 2696 2695 2694 2693 2692 2691 2689 2689 2688 2687 2687 2687 2687 2687 2688 2689 2688 2688 2687 2687 2687 2688 2689 2690
2799 2797 2794 2793 2791 2790 2788 2786 2783 2781 2779 2777 2774 2771 2769 2767 2764 2762 2759 2757 2755 2752 2749 2747 2744 2742 2740 2739 2738 2737 2736 2735 2733 2730 2726 2722 2718 2716 2716 2716 2713 2711 2708 2707 2707 2706 2704 2702 2702 2702 2702 2702 2703 2703 2703 2702 2701 2699 2698 2697 2696 2694 2693 2692 2691 2689 2688 2687 2686 2685 2684 2683 2682 2682 2683 2682 2682 2681 2681 2681 2681 2681 2682 2682 2684 2685
2797 2795 2793 2792 2790 2788 2786 2784 2782 2779 2777 2775 2772 2770 2767 2764 2762 2759 2757 2756 2754 2751 2748 2745 2742 2740 2739 2737 2736 2734 2734 2733 2731 2728 2725 2721 2716 2713 2713 2713 2711 2708 2705 2704 2703 2703 2701 2699 2698 2698 2699 2699 2700 2700 2700 2699 2697 2696 2695 2693 2692 2691 2690 2688 2687 2685 2684 2682 2682 2681 2680 2679 2678 2678 2677 2677 2676 2676 2676 2676 2676 2677 2677 2678 2679 2681
2795 2793 2792 2790 2788 2786 2783 2781 2779 2777 2775 2773 2772 2769 2767 2763 2760 2758 2756 2755 2752 2750 2747 2744 2740 2738 2736 2735 2733 2732 2731 2730 2728 2727 2723 2720 2715 2712 2710 2710 2709 2706 2703 2701 2700 2700 2698 2697 2695 2695 2695 2695 2696 2696 2696 2695 2694 2692 2691 2690 2689 2687 2686 2684 2682 2681 2680 2678 2677 2676 2675 2674 2674 2673 2672 2672 2671 2671 2671 2672 2672 2673 2673 2674 2675 2676
2792 2791 2789 2787 2785 2783 2781 2779 2777 2775 2774 2772 2771 2769 2766 2763 2760 2757 2755 2753 2751 2749 2746 2742 2739 2736 2734 2732 2731 2730 2729 2728 2726 2724 2721 2717 2713 2710 2708 2708 2707 2704 2702 2699 2697 2696 2696 2694 2693 2692 2692 2692 2692 2692 2691 2690 2689 2688 2687 2686 2685 2683 2682 2680 2678 2677 2676 2674 2673 2672 2671 2670 2669 2669 2668 2667 2667 2667 2667 2667 2668 2669 2669 2670 2671 2671
2790 2788 2787 2785 2782 2780 2778 2777 2775 2774 2772 2771 2769 2767 2765 2762 2760 2757 2754 2752 2750 2747 2744 2741 2738 2736 2732 2730 2728 2727 2727 2726 2724 2722 2719 2716 2712 2709 2708 2707 2705 2703 2701 2697 2693 2692 2692 2692 2691 2690 2689 2689 2689 2688 2687 2686 2685 2684 2683 2682 2681 2679 2678 2676 2675 2673 2672 2671 2670 2668 2667 2667 2666 2665 2664 2664 2664 2664 2663 2664 2664 2665 2665 2666 2666 2666
2787 2785 2784 2782 2780 2778 2777 2775 2773 2772 2771 2770 2768 2766 2764 2761 2758 2755 2752 2750 2748 2745 2742 2739 2737 2734 2731 2728 2725 2724 2723 2724 2723 2721 2718 2714 2710 2708 2707 2705 2703 2702 2700 2696 2692 2688 2687 2689 2689 2689 2688 2687 2687 2686 2685 2683 2682 2681 2680 2678 2677 2676 2675 2673 2672 2670 2669 2668 2667 2666 2665 2664 2663 2662 2661 2661 2660 2660 2659 2660 2660 2660 2660 2661 2661 2661
2784 2782 2781 2779 2778 2777 2775 2773 2772 2771 2769 2768 2766 2764 2762 2759 2756 2754 2751 2749 2746 2744 2741 2737 2735 2733 2730 2728 2724 2722 2720 2721 2721 2720 2717 2713 2709 2706 2705 2703 2701 2700 2699 2697 2693 2688 2684 2684 2686 2687 2687 2686 2685 2684 2682 2681 2680 2678 2677 2675 2674 2673 2672 2671 2669 2668 2667 2665 2664 2663 2662 2661 2660 2659 2658 2657 2657 2657 2656 2656 2657 2656 2656 2656 2657 2657
2782 2780 2779 2777 2776 2775 2773 2772 2770 2769 2767 2765 2763 2761 2759 2757 2754 2752 2749 2747 2745 2742 2739 2736 2733 2731 2729 2727 2724 2721 2718 2718 2718 2717 2715 2712 2707 2705 2704 2702 2700 2698 2697 2697 2695 2691 2686 2682 2682 2684 2685 2684 2682 2681 2680 2679 2677 2676 2674 2672 2671 2670 2670 2668 2667 2666 2664 2663 2662 2661 2660 2659 2658 2657 2656 2655 2654 2654 2654 2654 2654 2653 2653 2653 2653 2654
2780 2779 2777 2776 2775 2773 2772 2770 2768 2767 2765 2763 2761 2759 2757 2754 2752 2750 2748 2746 2743 2741 2738 2735 2732 2729 2727 2725 2722 2720 2718 2717 2716 2715 2713 2710 2707 2703 2702 2701 2698 2696 2695 2694 2693 2691 2688 2683 2681 2681 2681 2681 2680 2679 2677 2676 2675 2673 2672 2671 2669 2668 2667 2667 2665 2664 2663 2662 2661 2660 2659 2657 2657 2655 2654 2653 2653 2652 2652 2652 2651 2651 2651 2651 2651 2652
2779 2778 2777 2775 2773 2772 2770 2768 2767 2765 2762 2760 2758 2757 2754 2752 2750 2748 2746 2744 2742 2739 2737 2734 2731 2728 2725 2722 2720 2718 2717 2716 2715 2714 2712 2709 2706 2702 2700 2699 2697 2695 2693 2692 2690 2689 2687 2684 2682 2680 2678 2678 2678 2678 2676 2674 2673 2672 2671 2669 2668 2667 2666 2665 2664 2663 2662 2661 2660 2658 2657 2657 2655 2654 2653 2652 2652 2651 2650 2650 2649 2649 2649 2649 2649 2650
2778 2777 2776 2774 2772 2770 2768 2767 2764 2762 2761 2758 2757 2755 2752 2751 2748 2747 2744 2742 2740 2738 2736 2733 2731 2728 2725 2722 2719 2716 2715 2714 2714 2712 2711 2708 2705 2702 2699 2698 2696 2695 2692 2690 2689 2687 2685 2683 2682 2680 2678 2677 2677 2677 2676 2674 2672 2671 2670 2669 2668 2667 2665 2664 2663 2662 2661 2660 2659 2658 2657 2656 2655 2654 2653 2652 2651 2650 2649 2649 2648 2648 2647 2647 2648 2648
2777 2776 2774 2772 2770 2768 2766 2764 2762 2761 2759 2757 2755 2753 2751 2749 2747 2745 2743 2741 2739 2737 2734 2732 2730 2727 2725 2722 2719 2716 2714 2712 2712 2711 2709 2707 2705 2702 2699 2697 2696 2694 2692 2690 2688 2686 2684 2682 2680 2679 2678 2676 2675 2675 2674 2673 2672 2671 2670 2669 2667 2666 2665 2664 2663 2662 2661 2660 2659 2657 2656 2655 2654 2653 2652 2651 2650 2649 2648 2648 2647 2647 2647 2647 2647 2647
2776 2775 2773 2771 2768 2767 2764 2763 2761 2759 2757 2755 2753 2752 2750 2748 2746 2744 2742 2740 2737 2735 2733 2731 2728 2726 2724 2722 2719 2716 2713 2711 2710 2709 2707 2706 2704 2702 2698 2696 2695 2694 2692 2690 2687 2685 2683 2681 2679 2678 2677 2676 2675 2673 2672 2672 2672 2671 2669 2668 2667 2666 2665 2664 2663 2662 2661 2660 2658 2657 2656 2655 2653 2652 2651 2650 2649 2648 2647 2647 2647 2646 2646 2646 2646 2647
2775 2773 2771 2769 2767 2765 2763 2761 2759 2758 2756 2754 2752 2750 2748 2747 2745 2743 2741 2738 2736 2734 2732 2729 2727 2725 2723 2721 2718 2716 2713 2711 2709 2707 2706 2705 2703 2701 2698 2696 2694 2693 2692 2690 2687 2685 2682 2680 2678 2677 2676 2676 2675 2674 2672 2671 2671 2670 2669 2668 2667 2666 2665 2664 2663 2662 2661 2659 2658 2657 2656 2654 2653 2652 2651 2650 2649 2648 2647 2647 2646 2646 2646 2645 2646 2646
2773 2772 2770 2768 2766 2764 2762 2760 2758 2757 2755 2753 2751 2749 2747 2745 2743 2742 2739 2737 2735 2732 2730 2728 2725 2723 2721 2719 2717 2715 2713 2711 2709 2707 2705 2704 2702 2700 2698 2696 2693 2692 2691 2689 2687 2685 2683 2681 2678 2677 2676 2675 2674 2673 2672 2672 2670 2670 2669 2668 2668 2667 2666 2665 2663 2662 2661 2660 2658 2657 2656 2654 2653 2652 2651 2650 2649 2648 2647 2647 2647 2646 2646 2646 2646 2647
2772 2771 2769 2767 2765 2763 2762 2760 2758 2756 2754 2752 2750 2748 2746 2744 2742 2740 2738 2736 2734 2732 2729 2727 2724 2722 2720 2718 2716 2714 2712 2710 2708 2706 2705 2703 2702 2700 2698 2695 2693 2691 2689 2687 2686 2684 2683 2681 2679 2677 2676 2675 2674 2673 2672 2672 2671 2670 2669 2669 2668 2667 2666 2665 2664 2662 2661 2660 2658 2657 2655 2654 2653 2652 2650 2649 2648 2648 2647 2647 2647 2647 2647 2647 2647 2647
2772 2770 2768 2767 2765 2763 2761 2759 2757 2755 2753 2751 2749 2747 2745 2742 2740 2738 2737 2735 2732 2730 2728 2726 2723 2721 2719 2717 2715 2713 2712 2709 2708 2706 2704 2702 2700 2698 2697 2694 2692 2690 2687 2686 2685 2683 2682 2680 2679 2677 2677 2675 2674 2673 2672 2672 2671 2671 2670 2670 2669 2668 2667 2666 2664 2663 2662 2660 2658 2657 2656 2654 2653 2652 2651 2649 2648 2647 2647 2647 2647 2647 2647 2647 2647 2648
2771 2769 2767 2766 2764 2762 2760 2758 2757 2754 2752 2750 2748 2746 2743 2741 2739 2737 2735 2733 2731 2729 2727 2724 2722 2720 2718 2717 2715 2713 2711 2709 2707 2705 2703 2702 2699 2697 2695 2693 2691 2689 2687 2685 2683 2682 2681 2680 2679 2677 2677 2676 2675 2674 2673 2672 2672 2672 2671 2670 2669 2668 2667 2666 2665 2663 2662 2660 2658 2657 2656 2655 2654 2652 2651 2650 2649 2647 2647 2647 2647 2647 2647 2648 2648 2648
2770 2769 2767 2765 2763 2761 2759 2757 2756 2753 2752 2749 2747 2745 2743 2741 2738 2737 2734 2732 2730 2728 2726 2724 2722 2719 2717 2716 2714 2712 2711 2709 2707 2705 2703 2701 2698 2696 2694 2692 2690 2688 2686 2684 2682 2682 2681 2680 2679 2678 2677 2676 2675 2675 2674 2673 2673 2673 2672 2671 2670 2669 2667 2666 2664 2663 2662 2660 2659 2658 2657 2655 2654 2653 2652 2651 2650 2649 2648 2648 2648 2648 2648 2649 2649 2649
2770 2768 2766 2764 2762 2761 2759 2757 2755 2752 2751 2748 2746 2744 2742 2740 2738 2736 2734 2732 2730 2728 2725 2723 2721 2719 2717 2715 2713 2712 2710 2708 2707 2704 2702 2700 2697 2695 2693 2690 2688 2687 2685 2684 2682 2681 2680 2680 2679 2678 2677 2677 2676 2676 2675 2675 2674 2674 2673 2672 2671 2669 2667 2666 2664 2663 2662 2661 2659 2658 2657 2656 2655 2654 2652 2652 2651 2650 2650 2650 2650 2650 2650 2650 2650 2650
2769 2767 2765 2763 2762 2760 2758 2756 2754 2752 2750 2747 2746 2744 2742 2740 2738 2736 2734 2732 2729 2727 2725 2722 2720 2718 2716 2714 2712 2711 2710 2708 2706 2704 2702 2699 2697 2694 2692 2690 2688 2686 2685 2683 2682 2681 2680 2680 2679 2679 2678 2677 2677 2677 2677 2676 2675 2675 2674 2672 2671 2670 2668 2667 2665 2664 2662 2661 2660 2658 2657 2657 2656 2655 2654 2653 2652 2651 2651 2651 2651 2651 2650 2650 2651 2651
2768 2767 2765 2763 2761 2759 2757 2755 2753 2751 2749 2747 2745 2743 2742 2740 2738 2736 2734 2732 2729 2727 2725 2722 2720 2718 2716 2714 2712 2710 2709 2707 2705 2703 2701 2698 2696 2694 2692 2689 2687 2686 2685 2683 2682 2682 2681 2681 2680 2680 2679 2679 2679 2678 2678 2677 2677 2676 2674 2673 2672 2670 2669 2667 2666 2665 2663 2662 2661 2659 2658 2657 2657 2656 2655 2654 2653 2652 2652 2652 2651 2650 2650 2650 2651 2651
2768 2766 2764 2762 2760 2758 2756 2754 2752 2750 2748 2747 2745 2743 2741 2739 2737 2736 2734 2732 2729 2727 2725 2722 2721 2718 2716 2714 2712 2710 2708 2706 2704 2702 2700 2698 2696 2693 2692 2690 2688 2686 2685 2684 2683 2682 2682 2682 2681 2681 2681 2680 2680 2680 2679 2679 2678 2677 2675 2674 2672 2671 2670 2669 2667 2666 2665 2663 2662 2661 2660 2658 2657 2656 2655 2654 2653 2653 2652 2652 2651 2651 2650 2650 2651 2652
2767 2765 2763 2761 2759 2757 2755 2753 2751 2749 2748 2746 2745 2743 2741 2739 2737 2735 2733 2731 2729 2727 2725 2722 2720 2718 2716 2714 2712 2710 2708 2706 2704 2702 2700 2698 2696 2693 2692 2690 2688 2687 2686 2685 2684 2684 2683 2683 2682 2682 2682 2682 2682 2681 2680 2680 2678 2677 2676 2675 2674 2672 2672 2670 2669 2667 2666 2665 2664 2662 2661 2660 2658 2657 2656 2655 2654 2653 2653 2653 2652 2652 2651 2651 2651 2652
2767 2765 2762 2760 2758 2757 2755 2752 2751 2749 2747 2746 2744 2743 2741 2740 2738 2736 2733 2731 2729 2727 2724 2722 2720 2718 2717 2714 2712 2710 2708 2706 2704 2702 2700 2698 2696 2694 2692 2691 2689 2688 2687 2687 2686 2686 2685 2685 2684 2684 2684 2684 2683 2682 2681 2680 2679 2678 2677 2676 2675 2674 2673 2672 2671 2669 2668 2667 2666 2664 2663 2662 2660 2659 2657 2656 2655 2654 2654 2654 2653 2653 2652 2652 2652 2652
2767 2764 2762 2760 2758 2756 2754 2752 2751 2749 2747 2746 2744 2742 2741 2739 2738 2736 2734 2732 2729 2727 2725 2723 2721 2718 2717 2715 2712 2711 2709 2707 2705 2703 2701 2699 2697 2695 2694 2692 2691 2689 2689 2688 2688 2687 2687 2687 2686 2686 2686 2685 2684 2683 2682 2682 2681 2680 2678 2678 2677 2676 2675 2674 2673 2672 2670 2669 2667 2666 2664 2663 2661 2660 2658 2657 2657 2656 2655 2654 2654 2654 2653 2653 2653 2653
2766 2764 2762 2760 2758 2756 2754 2752 2751 2749 2747 2746 2744 2742 2741 2739 2737 2736 2734 2732 2730 2728 2726 2723 2721 2719 2717 2715 2713 2711 2709 2707 2705 2703 2702 2700 2698 2697 2695 2693 2692 2691 2690 2690 2690 2689 2689 2688 2688 2688 2687 2687 2686 2685 2684 2683 2682 2681 2680 2680 2679 2678 2677 2676 2675 2674 2672 2671 2669 2668 2666 2664 2662 2661 2660 2658 2657 2657 2656 2656 2656 2656 2655 2655 2654 2654